Home > Weather > Antwerp > Past weeks

Flag for Belgium Weather for the Past 2 Weeks in Antwerp, Belgium

Now
59 °F

Passing clouds.


Feels Like: 59 °F
Forecast: 43 / 63 °F
Wind: 5 mph from East

Location: Antwerp / Deurne

Current Time: May 4, 2016 at 2:21:50 PM

Latest Report: May 4, 2016 at 1:20 PM


Visibility: N/A

Pressure: 30.39 "Hg

Humidity: 42%

Dew Point: 36 °F

Location of AntwerpLocation

Historic Weather in Antwerp — Graph

°F

Antwerp Temperature Yesterday

Maximum temperature yesterday: 57 °F (at 3:50 PM)
Minimum temperature yesterday: 43 °F (at 11:50 PM)
Average temperature yesterday: 52 °F

High & Low Weather Summary for the Past Weeks

 TemperatureHumidityPressure
High66 °F (Apr 21, 2:50 PM)93% (Apr 28, 2:50 AM)30.48 "Hg (Apr 28, 2:50 AM)
Low32 °F (Apr 28, 2:50 AM)24% (May 2, 2:20 PM)29.56 "Hg (Apr 26, 6:20 AM)
Average47 °F66%30.08 "Hg
* Reported Apr 19 12:20 PM — May 4 12:50 PM, Antwerp, Weather by CustomWeather, © 2016

Note: Actual official high and low records may vary slightly from our data, if they occured in-between our weather recording intervals... More about our weather records

Advertising

Antwerp Weather History for the Previous 24 Hours

Scroll right to see more
 ConditionsComfort  
Time TempWeatherWind HumidityBarometerVisibility
12:50 PM
Wed, May 4
57 °FPassing clouds.6 mph48%30.39 "HgN/A
12:20 PM57 °FPassing clouds.8 mph51%30.42 "HgN/A
11:50 AM55 °FPassing clouds.5 mph55%30.42 "HgN/A
11:20 AM55 °FPassing clouds.8 mph51%30.42 "HgN/A
10:50 AM55 °FPassing clouds.6 mph47%30.42 "HgN/A
9:50 AM52 °FSunny.9 mph58%30.42 "Hg10 mi
9:20 AM52 °FSunny.8 mph62%30.42 "Hg10 mi
8:50 AM50 °FSunny.7 mph71%30.42 "Hg10 mi
8:20 AM46 °FSunny.6 mph82%30.39 "Hg10 mi
7:50 AM43 °FSunny.2 mph81%30.39 "Hg10 mi
6:50 AM37 °FClear.2 mph87%30.39 "Hg10 mi
6:20 AM37 °FClear.2 mph87%30.39 "Hg10 mi
5:50 AM34 °FClear.2 mph93%30.39 "Hg10 mi
4:50 AM37 °FClear.No wind87%30.39 "Hg10 mi
4:20 AM37 °FClear.1 mph87%30.39 "Hg10 mi
3:50 AM37 °FClear.1 mph87%30.39 "Hg10 mi
3:20 AM39 °FClear.No wind87%30.39 "Hg10 mi
2:50 AM39 °FClear.2 mph81%30.39 "Hg10 mi
2:20 AM39 °FClear.2 mph81%30.39 "Hg10 mi
1:50 AM39 °FClear.1 mph87%30.39 "Hg10 mi
1:20 AM41 °FClear.1 mph81%30.39 "Hg10 mi
12:50 AM41 °FClear.1 mph81%30.39 "Hg10 mi
11:50 PM
Tue, May 3
43 °FClear.1 mph71%30.36 "Hg10 mi
10:50 PM48 °FClear.No wind62%30.36 "Hg10 mi
10:20 PM48 °FClear.2 mph66%30.36 "Hg10 mi
9:50 PM50 °FSunny.2 mph58%30.36 "Hg10 mi
9:20 PM50 °FSunny.6 mph58%30.36 "Hg10 mi
8:50 PM50 °FPassing clouds.6 mph54%30.33 "HgN/A
8:20 PM52 °FSunny.7 mph47%30.33 "Hg10 mi
7:50 PM52 °FSunny.8 mph50%30.33 "Hg10 mi
7:20 PM54 °FPassing clouds.10 mph51%30.33 "HgN/A
6:50 PM55 °FPassing clouds.12 mph51%30.33 "HgN/A
6:20 PM55 °FPassing clouds.10 mph51%30.30 "HgN/A
5:50 PM55 °FPassing clouds.13 mph38%30.30 "HgN/A
5:20 PM57 °FPassing clouds.13 mph31%30.30 "HgN/A
4:50 PM57 °FPassing clouds.13 mph36%30.30 "HgN/A
4:20 PM55 °FPassing clouds.10 mph41%30.30 "HgN/A
3:50 PM57 °FPassing clouds.14 mph36%30.30 "HgN/A
3:20 PM55 °FPassing clouds.12 mph44%30.30 "HgN/A
2:50 PM55 °FPassing clouds.13 mph47%30.27 "HgN/A
2:20 PM55 °FPassing clouds.13 mph44%30.27 "HgN/A
Weather by CustomWeather, © 2016

See weather overviewHow to use our weather pages